Forside
METAR-TAF:

METAR-TAF

Lufthavne :

Moree, Australien

Breddekreds: 29-29-56S, længdekreds: 149-50-41E, højde: 214 m

Aktuelle vejr

Denne rapport blev lavet for 29 minutter siden, kl. 01:00 UTC
Vind 11 kt fra sydøst
Temperatur 28°C
Fugtighed 30%
Tryk 1022 hPa
Sigt 10 km eller mere

METAR: YMOR 240100Z AUTO 13011KT 9999 // NCD 28/09 Q1022

Tid: 12:29 (01:29 UTC)


TAF: fraværende

Vejrobservationer og prognoser fra mere end 4000 lufthavne (METAR og TAF).

De gule og røde prikker repræsenterer de meteorologiske stationer.

Flyt musen over at se navnet på stationen.

Så klik over at se vejr observationer og prognoser.

At skifte det kort: Klik på de grønne knapper med et sort kors for at zoome ind; på den grønne knap med en bindestreg for at zoome ud; eller på de grønne pile for tilstødende kort.


METAR-TAF: